Regional Weather Roundup
Issued by NWS

Home | Current Version | Previous Version | Graphics & Text | Print | Product List | Glossary On
Versions: 1 2 3 4 5 6 7 8 9 10 11 12 13 14 15 16 17 18 19 20 21 22 23 24 25 26 27
000
ASUS45 KCYS 202010
RWRWY

WYOMING REGIONAL WEATHER ROUNDUP
NATIONAL WEATHER SERVICE CHEYENNE WY
200 PM MDT FRI OCT 20 2017

NOTE:  "FAIR" INDICATES FEW OR NO CLOUDS BELOW 12,000 FEET
WITH NO SIGNIFICANT WEATHER AND/OR OBSTRUCTIONS TO VISIBILITY.

WYZ001-202100-
YELLOWSTONE NATIONAL PARK

CITY           SKY/WX    TMP DP  RH WIND       PRES   REMARKS
LK YELLOWSTONE   N/A     35  33  92 VRB7G16   29.62S WCI  29
W YELLOWSTONE  NOT AVBL

$$
WYZ002>013-054>058-071-098>099-202100-
NORTHERN WYOMING

CITY           SKY/WX    TMP DP  RH WIND       PRES   REMARKS
JACKSON        CLOUDY    41  29  62 SW13      29.66R
CODY           FAIR      60  36  40 W13G23    29.40F
GREYBULL       FAIR      74  32  21 S18G32    29.31F
WORLAND        FAIR      75  32  20 S21G32    29.35F
SHERIDAN       FAIR      75  33  21 SW17      29.31F
BUFFALO        FAIR      72  27  18 SW14G25   29.40F
GILLETTE       FAIR      75  33  21 SW26G39   29.38F
HULETT         FAIR      77  32  19 SW24G36   29.38F
NEWCASTLE      FAIR      77  32  19 SW16G28   29.44F

$$
WYZ014>020-022>026-101>103-202100-
CENTRAL WYOMING

CITY           SKY/WX    TMP DP  RH WIND       PRES   REMARKS
BIG PINEY      FAIR      56  26  31 W31G43    29.63R
PINEDALE       MOCLDY    55  27  33 W25G33    29.61R
DUBOIS         FAIR      52  30  43 NW17      29.55R
LANDER         FAIR      68  26  20 S30G40    29.45F
RIVERTON       FAIR      68  21  16 SW21G37   29.44F
CASPER         FAIR      71  29  21 SW32G41   29.48F
DOUGLAS        FAIR      75  28  17 SW25G32   29.51F

$$
WYZ021-027>030-104>119-202100-
SOUTHERN WYOMING

CITY           SKY/WX    TMP DP  RH WIND       PRES   REMARKS
EVANSTON       CLOUDY    47  28  47 W30G38    29.72R
KEMMERER       FAIR      52  23  32 W35G45    29.67R
FORT BRIDGER   MOCLDY    57  24  27 W33G41    29.70R
ROCK SPRINGS   PTSUNNY   64  17  16 W25G36    29.59F
DIXON          FAIR      65  28  24 SW23G40   29.69F
RAWLINS        FAIR      65  27  23 SW38G51   29.60F
SARATOGA       FAIR      63  28  27 SW26      29.66F
LARAMIE        FAIR      65  24  21 SW25G36   29.66F
CHEYENNE       FAIR      71  30  21 S14G21    29.62F
TORRINGTON     PTSUNNY   77  34  21 S7        29.48F
PINE BLUFFS    FAIR      73  28  19 S15       29.58F

$$




USA.gov is the U.S. government's official web portal to all federal, state and local government web resources and services.